Showing default

AETHER-9, 67380

Orbit data source: Space-Track

AETHER-9, 67380 is a payload satellite owned by Kepler Comms (CA) in SSO that was launched on Sun, 11 Jan 2026 UTC via an FALCON 9 launch vehicle from the Air Force Western Test Range (AFWTR). Payload-class satellites include a variety of spacecraft equipped with specific instruments for various scientific and technological missions. These include communications satellites like Starlink; space stations such as the ISS; scientific satellites like the Hubble; Earth observation satellites from companies like Planet Labs, Umbra, and HawkEye 360; GPS; miniature CubeSats for education and research; and military/defense satellites.

Loading next visibility...
Identifier
67380, 2026-004T
Orbit
SSO
Country
Flag of CACA
Related business
Manufacturer
Kepler Comms
Mission
Operational Commercial Communications
Bus & Motor
KEPLER GEN2B, Unknown motor
Mass
300 kg wet, 300 kg dry
Launch date (UTC)
2026-01-11 (4 months ago)
Launch vehicle
FALCON 9
Launch site
Air Force Western Test Range (AFWTR)
Object type
Payload
Rocket body
Debris
Shape & HBR
Box + 2 Pan, 7.6 m
Radar Cross Section
4.448 m²

Expand to show TLE details & history
Last TLE update: 5 hours ago

TLE from 5 hours ago
0 AETHER-9
1 67380U 26004T   26146.58922726  .00000666  00000-0  82328-4 0  9991
2 67380  97.8001 145.5224 0000149 355.6752   4.4462 14.85978889 20077
Epoch: 2026-05-26T14:08Z
TLE epoch observation values (Epoch: 2026-05-26T14:08:29.235Z)
Latitude
-0.00003°
Longitude
49.24009°
Altitude
613.444 km
Speed
7.552 km/s
True Right ascension
09h 42m 05s
True Declination
0° 00' 00"
Sunlit
Object was in daylight at epoch
Visualization orbit readout
Latitude
Unknown
Longitude
Unknown
Altitude
Unknown
Speed
Unknown
Apparent Right ascension
Unknown
Apparent Declination
Unknown
Sunlit
N/A
Visualization observer readout
Local Sidereal Time
04:33:30
Azimuth
Unknown
Elevation
Unknown
Doppler factor
Unknown
Orbital elements
Apogee altitude
607.647 km
Perigee altitude
607.439 km
Semi-major axis
6,985.68 km
Eccentricity
0.00001
Inclination
97.8001°
RAAN
145.5224°
Arg. of periapsis
355.6752°
True anomaly
4.44633°
Mean anomaly
4.4462°
Eccentric anomaly
4.44627°
Mean motion
3.71732 °/min
Orbital period
96.84 mins
BSTAR
0.000082328
Loading maneuver chart data...
Computing Atmospheric mass density...
Loading historical data...
Loading historical data...
Loading historical data...
Loading historical data...
Loading historical data...
Loading historical data...
Loading historical data...

Documentation

Showing up to 5 results
|